Location: Bellerive
(46.9237°N, 7.0223°E)
Time: 11:41:24
(UTC+00:00)

Meteor 2-10 Rocket - Pass Details

Date: 09 April 2020
Orbit: 734 x 884 km, 81.2° (Epoch: 23 May)

Event Time Altitude Azimuth Distance (km) Brightness Sun altitude
Exits shadow 20:33:52 49° 105° (ESE) 1,018 3.7 -22.2°
Maximum altitude 20:34:09 49° 94° (E) 1,013 3.7 -22.2°
Drops below altitude 10° 20:39:23 10° 21° (NNE) 2,419 6.3 -22.9°
Sets 20:41:54 0° 16° (NNE) 3,380 7.2 -23.2°
